Orbital Elements at Epoch 2459200.5 (2020-Dec-17.0) TDB
Reference: JPL 25 (heliocentric ecliptic J2000)
Element | Value | Uncertainty (1-sigma) | Units |
e | .2162497011056314 | 4.1705e-08 | |
a | 2.736728061022283 | 1.6626e-08 | au |
q | 2.14491143581882 | 1.1628e-07 | au |
i | 9.728403253531631 | 4.7651e-06 | deg |
node | 147.2095967101502 | 2.5198e-05 | deg |
peri | 235.0459985952567 | 2.7103e-05 | deg |
M | 221.9963221243021 | 1.2577e-05 | deg |
tp | 2459834.419417401824 (2022-Sep-11.91941740) | 6.1477e-05 | TDB |
period | 1653.658755893519 4.53 | 1.5069e-05 4.126e-08 | d yr |
n | .2176990861730005 | 1.9838e-09 | deg/d |
Q | 3.328544686225746 | 2.0221e-08 | au |
|
| | Orbit Determination Parameters
Additional Information
|